[[{"header":{"parameterUnit":"m.s-1","parameterCategory":1,"la1":30.2991,"la2":30.254,"lo1":-89.0895,"lo2":-89.0444,"dy":0.0017,"dx":0.0017,"nx":28,"ny":28,"refTime":"2024-08-08T21:00:00:Z","depth":0,"parameterNumber":2,"parameterNumberName":"U-component_of_WINDS"},"data":[0,0,0,0,0,0,0,0,0,0,0,0,0,0,0,0,0,0,0,0,0,0,0,0,0,0,0,0,0,0,0,0,0,0,0,0,0,0,0,0,0,0,0,0,0,0,0,0,0,0,0,0,0,0,0,0,0,0,1.8209,1.8209,0,1.82,1.82,1.82,1.8156,1.8155,1.8154,1.8153,1.8145,1.8145,1.8146,0,0,0,0,0,0,0,0,0,0,0,0,0,1.8191,1.8191,1.8209,1.8209,1.8209,1.82,1.82,1.82,1.8157,1.8155,1.8154,1.8153,1.8144,1.8145,1.8146,0,0,0,0,0,0,0,0,0,0,0,0,0,1.8192,1.8192,1.8209,1.8186,1.8184,1.82,1.82,1.82,1.8157,1.8155,1.8154,1.8152,1.8144,1.8145,1.8146,1.8184,0,0,1.815,1.815,0,0,0,0,0,0,0,0,1.8192,1.8193,1.819,1.8188,1.8185,1.8178,1.8191,1.8195,1.8157,1.8167,1.8153,1.8151,1.8157,1.8157,1.8159,1.8184,1.8184,1.815,1.8151,1.8151,1.8151,0,0,0,0,0,0,0,1.8192,1.8193,1.8206,1.819,1.8187,1.8177,1.8176,1.8191,1.8171,1.8166,1.8163,1.8162,1.8156,1.8158,1.8158,1.8184,1.815,1.8151,1.8152,1.8152,1.8243,1.8244,0,0,0,0,0,0,1.8195,1.8193,1.8206,1.8206,1.8185,1.8179,1.8177,1.8182,1.8171,1.8167,1.8164,1.816,1.8157,1.8157,1.8158,1.8203,1.8151,1.8152,1.8153,1.8241,1.8243,1.8245,0,0,0,0,0,0,1.8195,1.8197,1.8206,1.8199,1.8199,1.8181,1.8187,1.8183,1.8185,1.8169,1.8165,1.817,1.8155,1.8156,1.8179,1.8202,1.8153,1.8154,1.8239,1.8241,1.8244,1.8293,0,0,0,0,0,0,1.8194,1.8197,1.821,1.8199,1.82,1.8227,1.8188,1.8183,1.8187,1.8182,1.8173,1.817,1.8154,1.8177,1.818,1.8203,1.8154,1.8237,1.824,1.8243,1.8289,1.8297,1.8304,0,0,0,0,0,1.8194,1.8224,1.8211,1.8213,1.8216,1.8228,1.8228,1.8209,1.8189,1.8203,1.8193,1.8171,1.8199,1.818,1.8182,1.8206,1.8235,1.8239,1.8243,1.8286,1.8295,1.8304,0,0,0,0,0,0,1.8238,1.8222,1.8207,1.8235,1.8233,1.8221,1.8237,1.8219,1.8224,1.8219,1.8195,1.8194,1.822,1.8215,1.8194,1.8244,1.8214,1.8218,1.8246,1.8254,1.8262,1.8262,1.8155,0,0,0,0,0,1.8251,1.8261,1.8247,1.8273,1.8273,1.8256,1.826,1.8246,1.8243,1.8242,1.8234,1.8233,1.8242,1.8248,1.8255,1.8289,1.8287,1.8307,1.8314,1.832,1.8324,1.8344,1.8352,1.8258,1.8258,1.8258,0,0,1.8277,1.827,1.8278,1.8281,1.8278,1.8291,1.8255,1.8269,1.8279,1.8244,1.8265,1.826,1.8257,1.8286,1.8298,1.8283,1.835,1.8325,1.833,1.833,1.8349,1.8358,1.8366,1.826,1.826,1.8259,0,0,1.8331,1.8327,1.8348,1.8347,1.8343,1.8332,1.8338,1.8329,1.8324,1.8344,1.832,1.8331,1.8346,1.8346,1.8348,1.8406,1.8387,1.841,1.8447,1.8466,1.8474,1.848,1.8502,1.851,1.8414,1.8414,1.8414,0,1.8365,1.8382,1.8362,1.8378,1.8381,1.8352,1.8374,1.8374,1.8373,1.8376,1.8359,1.838,1.8375,1.8405,1.842,1.8422,1.8428,1.841,1.8474,1.8481,1.8486,1.8507,1.8515,1.8417,1.8417,1.8416,1.8416,0,1.8424,1.8437,1.8454,1.8455,1.846,1.848,1.8464,1.8472,1.8458,1.8449,1.8472,1.8467,1.8473,1.848,1.8465,1.8508,1.8499,1.8478,1.8447,1.8499,1.8518,1.8525,1.8421,1.842,1.8419,1.8418,0,0,1.8503,1.8494,1.8501,1.8502,1.8498,1.8508,1.8527,1.8534,1.8542,1.8543,1.8559,1.8575,1.8557,1.8559,1.8546,1.8563,1.8611,1.8541,1.854,1.8554,1.8659,1.8675,1.8684,1.8599,1.86,1.8601,1.866,0,1.8556,1.8587,1.8571,1.8605,1.8618,1.8592,1.8609,1.8609,1.8602,1.8613,1.8605,1.8617,1.8592,1.8593,1.8609,1.8602,1.8632,1.8598,1.8615,1.8615,1.8616,1.8694,1.8709,1.8764,1.8667,1.8668,1.8669,0,1.8621,1.8626,1.8661,1.8657,1.8662,1.8677,1.8683,1.8693,1.8694,1.8688,1.8692,1.8675,1.8696,1.8666,1.8694,1.8672,1.8678,1.8676,1.8678,1.8678,1.8645,1.8697,1.8781,1.879,1.8681,1.868,1.8679,0,1.8676,1.8692,1.8716,1.8717,1.8712,1.8724,1.8723,1.8722,1.8728,1.8734,1.8738,1.8746,1.8751,1.8759,1.8745,1.8725,1.8776,1.8745,1.8773,1.8773,1.8784,1.8783,1.8871,1.8788,1.8788,1.8788,1.8788,0,1.8736,1.8759,1.8741,1.8755,1.8781,1.8763,1.879,1.8786,1.8786,1.88,1.8778,1.8793,1.8774,1.8787,1.8777,1.8803,1.8805,1.8802,1.8799,1.8804,1.8804,1.8807,1.8803,1.879,1.879,1.8789,1.8789,0,1.8801,1.879,1.8814,1.8809,1.8808,1.8827,1.8823,1.8837,1.883,1.8849,1.8852,1.8841,1.8856,1.8844,1.8857,1.8851,1.8886,1.8877,1.8885,1.8883,1.8912,1.8909,1.9004,1.9017,1.8926,1.8927,1.8927,0,1.884,1.8858,1.8855,1.8863,1.8863,1.8876,1.8883,1.8867,1.8875,1.8879,1.8893,1.8906,1.8915,1.894,1.8934,1.8945,1.8937,1.8969,1.8938,1.8943,1.8938,1.8937,1.8939,1.8975,1.8976,1.8977,1.8978,0,1.8911,1.8905,1.8915,1.8925,1.8933,1.894,1.8944,1.8953,1.8937,1.8947,1.8962,1.897,1.8985,1.8998,1.9008,1.9008,1.8991,1.8988,1.8995,1.9,1.9005,1.9004,1.8903,1.8986,1.8985,1.8984,1.8984,1.8984,1.8965,1.898,1.8981,1.8993,1.8996,1.9001,1.9015,1.9011,1.9022,1.9033,1.9024,1.9042,1.9045,1.9056,1.9059,1.9074,1.906,1.907,1.9073,1.9076,1.908,1.9003,1.9075,1.9075,1.9075,1.9075,1.9075,0,1.9035,1.9035,1.9047,1.9055,1.9066,1.905,1.9055,1.9065,1.9082,1.9085,1.9096,1.9114,1.9128,1.9124,1.9137,1.915,1.9143,1.9154,1.9153,1.9153,1.9091,1.9084,1.916,1.916,1.916,1.916,1.916,1.916,1.9073,1.9098,1.9093,1.912,1.912,1.9137,1.9142,1.9148,1.9151,1.9173,1.9184,1.9182,1.9183,1.9197,1.9209,1.9208,1.9214,1.9228,1.9224,1.9166,1.9157,1.9149,1.9142,1.923,1.923,1.9285,1.9286,1.9286]},{"header":{"parameterUnit":"m.s-1","parameterCategory":1,"la1":30.2991,"la2":30.254,"lo1":-89.0895,"lo2":-89.0444,"dy":0.0017,"dx":0.0017,"nx":28,"ny":28,"refTime":"2024-08-08T21:00:00:Z","depth":0,"parameterNumber":3,"parameterNumberName":"V-component_of_WINDS"},"data":[0,0,0,0,0,0,0,0,0,0,0,0,0,0,0,0,0,0,0,0,0,0,0,0,0,0,0,0,0,0,0,0,0,0,0,0,0,0,0,0,0,0,0,0,0,0,0,0,0,0,0,0,0,0,0,0,0,0,-5.1221,-5.1222,0,-5.1273,-5.1273,-5.1274,-5.1235,-5.1234,-5.1232,-5.1231,-5.1279,-5.1282,-5.1285,0,0,0,0,0,0,0,0,0,0,0,0,0,-5.1087,-5.1089,-5.1221,-5.1222,-5.1223,-5.1273,-5.1273,-5.1274,-5.1236,-5.1234,-5.1232,-5.123,-5.1278,-5.1281,-5.1285,0,0,0,0,0,0,0,0,0,0,0,0,0,-5.1142,-5.109,-5.1221,-5.121,-5.1209,-5.1273,-5.1273,-5.1274,-5.1236,-5.1234,-5.1231,-5.1229,-5.1277,-5.1281,-5.1285,-5.1362,0,0,-5.1298,-5.13,0,0,0,0,0,0,0,0,-5.1139,-5.1147,-5.1211,-5.121,-5.121,-5.1245,-5.1244,-5.1303,-5.1237,-5.1226,-5.123,-5.1228,-5.1269,-5.1274,-5.1289,-5.1364,-5.1366,-5.1299,-5.1301,-5.1303,-5.1304,0,0,0,0,0,0,0,-5.1135,-5.1145,-5.1241,-5.1212,-5.1211,-5.1201,-5.1206,-5.1255,-5.1261,-5.1226,-5.1224,-5.1231,-5.1269,-5.1285,-5.129,-5.1367,-5.1299,-5.1302,-5.1305,-5.1307,-5.1507,-5.151,0,0,0,0,0,0,-5.1133,-5.1142,-5.124,-5.1243,-5.1168,-5.1205,-5.1211,-5.1236,-5.126,-5.1262,-5.1233,-5.1229,-5.1279,-5.1285,-5.1292,-5.1383,-5.1303,-5.1307,-5.131,-5.1505,-5.1508,-5.1511,0,0,0,0,0,0,-5.113,-5.1142,-5.1238,-5.1192,-5.1203,-5.121,-5.1239,-5.1239,-5.1255,-5.1265,-5.1266,-5.1249,-5.1277,-5.1286,-5.1345,-5.1384,-5.1309,-5.1313,-5.1501,-5.1506,-5.1509,-5.1565,0,0,0,0,0,0,-5.1127,-5.1141,-5.1171,-5.1193,-5.1206,-5.1291,-5.1241,-5.1241,-5.1263,-5.1258,-5.128,-5.1281,-5.1276,-5.1339,-5.1349,-5.1388,-5.1316,-5.1498,-5.1503,-5.1508,-5.156,-5.1571,-5.158,0,0,0,0,0,-5.1122,-5.1184,-5.1173,-5.1185,-5.1243,-5.1294,-5.1301,-5.1295,-5.1266,-5.1296,-5.1302,-5.128,-5.1378,-5.1345,-5.1357,-5.1398,-5.1495,-5.1502,-5.1508,-5.1556,-5.1569,-5.158,0,0,0,0,0,0,-5.1164,-5.1186,-5.1174,-5.1245,-5.1268,-5.1287,-5.1324,-5.1309,-5.1339,-5.1333,-5.1323,-5.1329,-5.1391,-5.14,-5.1363,-5.1473,-5.1432,-5.1441,-5.1465,-5.1477,-5.1487,-5.1483,-5.132,0,0,0,0,0,-5.1182,-5.1222,-5.1239,-5.13,-5.1312,-5.1316,-5.1338,-5.1332,-5.1354,-5.1363,-5.1374,-5.1396,-5.1432,-5.1455,-5.1488,-5.1562,-5.1566,-5.1596,-5.1606,-5.1614,-5.1621,-5.1661,-5.1674,-5.1531,-5.1531,-5.1531,0,0,-5.1218,-5.1236,-5.1261,-5.1309,-5.1326,-5.1367,-5.1324,-5.1369,-5.1399,-5.137,-5.1427,-5.1436,-5.1459,-5.1526,-5.1556,-5.1536,-5.1662,-5.1622,-5.1629,-5.1631,-5.1669,-5.1682,-5.1694,-5.1536,-5.1535,-5.1534,0,0,-5.1306,-5.1323,-5.1376,-5.1395,-5.1422,-5.1425,-5.1438,-5.146,-5.1465,-5.1523,-5.1502,-5.1537,-5.1598,-5.1616,-5.1634,-5.1731,-5.1711,-5.1742,-5.1794,-5.1833,-5.1844,-5.1854,-5.1888,-5.19,-5.1749,-5.175,-5.175,0,-5.1347,-5.1409,-5.1405,-5.1452,-5.1473,-5.1451,-5.1504,-5.1522,-5.1558,-5.1573,-5.155,-5.1628,-5.1642,-5.1713,-5.1737,-5.1752,-5.1766,-5.1738,-5.1843,-5.1853,-5.1862,-5.1894,-5.1907,-5.1753,-5.1753,-5.1752,-5.1752,0,-5.1459,-5.1503,-5.1542,-5.1579,-5.1605,-5.1655,-5.1657,-5.1684,-5.1676,-5.1681,-5.1741,-5.1758,-5.1794,-5.1811,-5.1803,-5.1881,-5.1868,-5.1845,-5.1803,-5.1879,-5.191,-5.1922,-5.1758,-5.1757,-5.1756,-5.1755,0,0,-5.1572,-5.1608,-5.1623,-5.164,-5.1669,-5.1702,-5.1751,-5.1789,-5.1812,-5.1838,-5.1879,-5.1933,-5.1912,-5.1931,-5.1926,-5.196,-5.2036,-5.1932,-5.1933,-5.195,-5.2123,-5.2139,-5.2154,-5.2024,-5.2026,-5.2028,-5.212,0,-5.166,-5.1747,-5.1745,-5.1825,-5.1865,-5.1846,-5.1889,-5.1911,-5.1918,-5.1952,-5.1958,-5.1997,-5.1967,-5.1979,-5.2012,-5.2019,-5.207,-5.2013,-5.206,-5.2062,-5.2054,-5.217,-5.2187,-5.2273,-5.2132,-5.2134,-5.2136,0,-5.1774,-5.1806,-5.1891,-5.1916,-5.1933,-5.1972,-5.2007,-5.204,-5.2065,-5.2068,-5.2091,-5.208,-5.2129,-5.2088,-5.2155,-5.2117,-5.2136,-5.2143,-5.2146,-5.2149,-5.2102,-5.2174,-5.23,-5.2313,-5.2154,-5.2153,-5.2152,0,-5.1847,-5.1912,-5.1971,-5.1987,-5.2017,-5.2045,-5.2059,-5.2082,-5.2105,-5.2135,-5.215,-5.2186,-5.2205,-5.2232,-5.2231,-5.2201,-5.2299,-5.2258,-5.2301,-5.2302,-5.2321,-5.232,-5.2451,-5.2336,-5.2336,-5.2336,-5.2336,0,-5.1945,-5.1997,-5.2005,-5.2041,-5.2099,-5.2097,-5.2154,-5.2165,-5.2186,-5.2224,-5.2209,-5.2244,-5.2241,-5.2277,-5.2276,-5.2332,-5.2341,-5.2343,-5.2342,-5.2344,-5.2344,-5.2355,-5.2349,-5.2339,-5.2339,-5.2338,-5.2337,0,-5.2035,-5.2042,-5.2106,-5.2131,-5.2138,-5.218,-5.2201,-5.2235,-5.2242,-5.2289,-5.23,-5.231,-5.2351,-5.2354,-5.2401,-5.24,-5.2468,-5.2461,-5.246,-5.2458,-5.2501,-5.2497,-5.2643,-5.2662,-5.2537,-5.2538,-5.2539,0,-5.2097,-5.2137,-5.2167,-5.2192,-5.2208,-5.2249,-5.2273,-5.2273,-5.2299,-5.2332,-5.2362,-5.2402,-5.2434,-5.2501,-5.2511,-5.2547,-5.254,-5.2589,-5.2545,-5.2546,-5.254,-5.2537,-5.2541,-5.2597,-5.2598,-5.2599,-5.26,0,-5.2205,-5.2207,-5.2243,-5.2282,-5.2312,-5.2342,-5.2369,-5.2391,-5.2394,-5.2423,-5.2467,-5.2492,-5.2541,-5.2581,-5.2617,-5.263,-5.2616,-5.2615,-5.2627,-5.2628,-5.2625,-5.2626,-5.2482,-5.2611,-5.261,-5.2609,-5.2608,-5.2608,-5.2281,-5.2317,-5.2344,-5.2386,-5.2407,-5.2434,-5.2468,-5.248,-5.2516,-5.2557,-5.2555,-5.2603,-5.2628,-5.2675,-5.2691,-5.2727,-5.271,-5.2728,-5.2732,-5.2736,-5.274,-5.2621,-5.2734,-5.2734,-5.2733,-5.2733,-5.2733,0,-5.2388,-5.2405,-5.2444,-5.2484,-5.2517,-5.2504,-5.2534,-5.2562,-5.2605,-5.263,-5.2663,-5.2713,-5.2752,-5.2767,-5.2805,-5.2831,-5.2826,-5.2841,-5.2838,-5.2842,-5.2753,-5.2739,-5.2845,-5.2845,-5.2845,-5.2845,-5.2845,-5.2845,-5.2447,-5.2506,-5.2512,-5.2581,-5.2598,-5.2646,-5.2665,-5.2689,-5.271,-5.2767,-5.28,-5.281,-5.2831,-5.2871,-5.2906,-5.291,-5.2924,-5.2942,-5.2942,-5.2859,-5.2848,-5.2837,-5.2823,-5.2945,-5.2945,-5.3027,-5.3028,-5.3028]}]]